Buffalo, NY

9:10 AM EST on December 09, 2019 (GMT -0500)
Buffalo Niagara International

Weather History for KBUF - July, 2019

Change the Weather History Date:

Wednesday, July 10, 2019

  Actual Average Record
Temperature  
Mean Temperature 78 °F 71 °F  
Max Temperature 90 °F 80 °F 95 °F (1988)
Min Temperature 65 °F 62 °F 50 °F (1962)
Degree Days  
Heating Degree Days 0 0  
Month to date heating degree days 0 2  
Since 1 June heating degree days 62 66  
Since 1 July heating degree days 0 2  
Cooling Degree Days 13 6  
Month to date cooling degree days 90 60  
Year to date cooling degree days 173 189  
Since 1 June cooling degree days 165 163  
Growing Degree Days 26 (Base 50)    
Moisture  
Dew Point 64 °F    
Average Humidity 62    
Maximum Humidity 81    
Minimum Humidity 43    
Precipitation  
Precipitation 0.00 in 0.09 in 1.34 in (1917)
Month to date precipitation 0.62 0.99  
Year to date precipitation 23.54 19.66  
Snow  
Snow 0.00 in 0.00 in 0.00 in ()
Month to date snowfall 0.0 0.0  
Since 1 June snowfall 0.0 0.0  
Since 1 July snowfall 0.0 0.0  
Snow Depth 0.00 in    
Sea Level Pressure  
Sea Level Pressure 29.96 in    
Wind  
Wind Speed 6 mph (SSW)    
Max Wind Speed 14 mph    
Max Gust Speed 17 mph    
Visibility 10 miles    
Events      
T = Trace of Precipitation, MM = Missing Value Source: NWS Daily Summary

Daily Weather History Graph

Daily Weather History Graph

Search for Another Location

Airport or City:

Astronomy

Jul. 10, 2019 Rise Set
Actual Time 5:45 AM EDT 8:54 PM EDT
Civil Twilight 5:10 AM EDT 9:29 PM EDT
Nautical Twilight 4:26 AM EDT 10:13 PM EDT
Astronomical Twilight 3:33 AM EDT 11:06 PM EDT
Moon 2:52 PM EDT (7/10) 1:31 AM EDT (7/10)
Length of Visible Light 16h 18m
Length of Day
15h 09m
Waxing Gibbous, 63% of the Moon is Illuminated
Jul 10
Waxing Gibbous
Jul 16
Full
Jul 24
Last Quarter
Jul 31
New
Aug 7
First Quarter

Hourly Weather History & Observations

Time (EDT) Temp. Heat Index Dew Point Humidity Pressure Visibility Wind Dir Wind Speed Gust Speed Precip Events Conditions
12:54 AM 69.1 °F - 61.0 °F 75% 30.02 in 10.0 mi SSE 3.5 mph - N/A   Scattered Clouds
1:54 AM 68.0 °F - 61.0 °F 78% 30.02 in 10.0 mi South 4.6 mph - N/A   Mostly Cloudy
2:54 AM 66.9 °F - 60.1 °F 79% 30.01 in 10.0 mi South 5.8 mph - N/A   Mostly Cloudy
3:54 AM 66.9 °F - 60.1 °F 79% 30.01 in 10.0 mi SE 3.5 mph - N/A   Partly Cloudy
4:54 AM 66.0 °F - 60.1 °F 81% 30.00 in 10.0 mi SSE 3.5 mph - N/A   Clear
5:54 AM 66.0 °F - 60.1 °F 81% 30.01 in 10.0 mi East 3.5 mph - N/A   Partly Cloudy
6:54 AM 66.9 °F - 61.0 °F 81% 30.02 in 10.0 mi Calm Calm - N/A   Partly Cloudy
7:54 AM 71.1 °F - 63.0 °F 75% 30.02 in 10.0 mi Calm Calm - N/A   Partly Cloudy
8:54 AM 75.9 °F - 66.0 °F 71% 30.02 in 10.0 mi SSW 5.8 mph - N/A   Clear
9:54 AM 80.1 °F 81.9 °F 64.9 °F 60% 30.01 in 10.0 mi WSW 5.8 mph - N/A   Partly Cloudy
10:54 AM 84.0 °F 85.8 °F 64.9 °F 53% 29.99 in 10.0 mi SW 8.1 mph - N/A   Partly Cloudy
11:54 AM 86.0 °F 87.3 °F 64.0 °F 48% 29.99 in 10.0 mi SW 9.2 mph - N/A   Partly Cloudy
12:54 PM 87.1 °F 87.8 °F 63.0 °F 44% 29.97 in 10.0 mi SW 10.4 mph - N/A   Partly Cloudy
1:54 PM 88.0 °F 89.3 °F 64.0 °F 45% 29.95 in 10.0 mi Variable 6.9 mph - N/A   Partly Cloudy
2:54 PM 89.1 °F 91.3 °F 66.0 °F 46% 29.94 in 10.0 mi North - - N/A   Partly Cloudy
3:54 PM 89.1 °F 91.3 °F 66.0 °F 46% 29.93 in 10.0 mi WSW 9.2 mph - N/A   Partly Cloudy
4:54 PM 89.1 °F 91.3 °F 66.0 °F 46% 29.92 in 10.0 mi WSW 9.2 mph - N/A   Partly Cloudy
5:54 PM 89.1 °F 91.3 °F 66.0 °F 46% 29.91 in 10.0 mi West 5.8 mph - N/A   Mostly Cloudy
6:54 PM 86.0 °F 88.2 °F 66.0 °F 51% 29.91 in 10.0 mi SW 12.7 mph - N/A   Mostly Cloudy
7:54 PM 82.0 °F 84.1 °F 66.0 °F 58% 29.91 in 10.0 mi WSW 8.1 mph - N/A   Mostly Cloudy
8:54 PM 79.0 °F - 68.0 °F 69% 29.90 in 10.0 mi SW 6.9 mph - N/A   Mostly Cloudy
9:54 PM 78.1 °F - 66.9 °F 68% 29.91 in 10.0 mi SW 6.9 mph - N/A   Mostly Cloudy
10:54 PM 75.9 °F - 68.0 °F 76% 29.89 in 10.0 mi SSW 6.9 mph - N/A   Scattered Clouds
11:54 PM 75.9 °F - 66.9 °F 74% 29.88 in 10.0 mi SSW 5.8 mph - N/A   Scattered Clouds